Regional Weather Roundup
Issued by NWS

Home | Current Version | Previous Version | Text Only | Print | Product List | Glossary Off
Versions: 1 2 3 4 5 6 7 8 9 10 11 12 13 14 15 16 17 18 19 20 21 22 23 24 25 26 27 28 29 30 31 32 33 34 35 36 37 38 39 40 41 42 43 44 45 46 47 48 49 50

000
ASUS43 KLOT 120003
RWRIL

ILLINOIS REGIONAL WEATHER ROUNDUP
NATIONAL WEATHER SERVICE CHICAGO/ROMEOVILLE IL
600 PM CST MON DEC 11 2017

NOTE: "FAIR" INDICATES FEW OR NO CLOUDS BELOW 12,000 FEET WITH NO
SIGNIFICANT WEATHER AND/OR OBSTRUCTIONS TO VISIBILITY.

* THESE STATIONS ARE NOT UNDER NWS QUALITY CONTROL. THEY ALSO MAY NOT
  REPORT WEATHER SUCH AS PRECIPITATION OR FOG.

ILZ001-002-007-009-015-016-024-120100-
NORTHWEST ILLINOIS

CITY           SKY/WX    TMP DP  RH WIND       PRES   REMARKS
MOLINE         CLOUDY    36  34  92 NW16      29.85R WCI  26
6HR MIN TEMP:  36; 6HR MAX TEMP:  46; 6HR PCP:  0.01;

STERLING*        N/A    N/A N/A N/A MISG        N/A
SAVANNA*       CLOUDY    32  31  95 NW9       29.84R WCI  25
$$

ILZ003-004-008-010-011-017-018-120100-
NORTH CENTRAL ILLINOIS

CITY           SKY/WX    TMP DP  RH WIND       PRES   REMARKS
ROCKFORD       CLOUDY    32  29  88 NW7       29.80R FOG     WCI  26
6HR MIN TEMP:  31; 6HR MAX TEMP:  38; 6HR PCP:  0.09;

FREEPORT*      CLOUDY    32  29  90 NW6       29.82R WCI  26
ROCHELLE*      CLOUDY    32  31  96 NW5       29.79R FOG     WCI  27
DE KALB*       CLOUDY    32  31  97 NW7       29.78R FOG     WCI  25
PERU*          LGT SNOW  32  31  96 NW13      29.79R WCI  22
$$

ILZ005-006-012>014-019>023-120100-
NORTHEAST ILLINOIS

CITY           SKY/WX    TMP DP  RH WIND       PRES   REMARKS
CHICAGO-OHARE  LGT SNOW  33  31  92 NW7       29.75R VSB 3/4 WCI  27
6HR MIN TEMP:  33; 6HR MAX TEMP:  39; 6HR PCP:  0.07;

CHICAGO-MIDWAY LGT SNOW  34  31  88 N10       29.75R VSB 1   WCI  26
6HR MIN TEMP:  34; 6HR MAX TEMP:  40; 6HR PCP: TRACE;

AURORA         LGT SNOW  32  32 100 NW8       29.77R VSB 3/4 WCI  25
6HR MIN TEMP:  32; 6HR MAX TEMP:  40; 6HR PCP: TRACE;

LANSING*       CLOUDY    37  29  74 N8        29.73R WCI  30
JOLIET*        CLOUDY    38  29  68 N15       29.76R WCI  30
WAUKEGAN       CLOUDY    31  30  96 W5        29.75R FOG     WCI  26
6HR MIN TEMP:  30; 6HR MAX TEMP:  34; 6HR PCP:  0.14;

DUPAGE AIRPORT SNOW      32  32 100 NW6       29.75S VSB 1/2 WCI  26
6HR MIN TEMP:  32; 6HR MAX TEMP:  38; 6HR PCP:  0.05;

WHEELING       CLOUDY    33  32  96 NW9       29.77R FOG     WCI  25
6HR MIN TEMP:  33; 6HR MAX TEMP:  38; 6HR PCP: TRACE;

ROMEOVILLE*    LGT SNOW  34  30  88 N10       29.76R WCI  26
NORTHERLY ISL    N/A     36  31  82 W5          N/A  WCI  32
$$

LMZ740>746-120100-
SOUTHERN LAKE MICHIGAN

STATION/POSITION SKY/WX   TEMP    WIND        PRES    VSBY  WAVE
                          AIR SEA DIR/SP/G                  HT/PER
                          (F)     (DEG/KT/KT) (MB)    (MI)  (FT/S)
HARRISON CRIB              34     330/ 11/ 12   N/A
BURNHAM HARBOR             35     280/  7/  8   N/A
CALUMET HARBOR             36     330/  5/  6 1006.3R
BURNS HARBOR               35      40/  4/  6 1007.1R
MICHIGAN CITY              33      30/  5/  6   N/A
$$

ILZ025>027-034>036-040-047-049-050-058-095>099-120100-
WEST-CENTRAL ILLINOIS

CITY           SKY/WX    TMP DP  RH WIND       PRES   REMARKS
QUINCY         CLOUDY    43  33  68 NW23G31   29.90R
MACOMB*        LGT RAIN  38  33  84 NW20G35   29.90R WCI  28
PITTSFIELD*    CLOUDY    45  33  64 NW20G30   29.89R
$$

ILZ028>032-037-038-041>044-048-051>054-059>061-120100-
CENTRAL ILLINOIS

CITY           SKY/WX    TMP DP  RH WIND       PRES   REMARKS
BLOOMINGTON    CLOUDY    40  27  59 NW23G31   29.76R
DECATUR        CLOUDY    43  29  57 NW16G28   29.78R
PEORIA         CLOUDY    40  29  64 NW7       29.83R
6HR MIN TEMP:  40; 6HR MAX TEMP:  49; 6HR PCP: TRACE;

LINCOLN*       CLOUDY    43  30  59 NW14G20   29.79R
SPRINGFIELD    CLOUDY    45  33  63 NW18G26   29.83R
6HR MIN TEMP:  45; 6HR MAX TEMP:  53;

TAYLORVILLE    CLOUDY    44  31  61 NW23G36   29.82R
6HR MIN TEMP:  44; 6HR MAX TEMP:  52;

$$

ILZ033-039-045-046-055>057-062-063-120100-
EAST-CENTRAL ILLINOIS

CITY           SKY/WX    TMP DP  RH WIND       PRES   REMARKS
CHAMPAIGN      CLOUDY    42  26  53 W24G32    29.74R
DANVILLE*      MOCLDY    41  26  54 W13G25    29.67R
MATTOON        CLOUDY    46  30  53 NW23G32   29.76R
PARIS*         MOCLDY    42  29  58 W22G32    29.74R
$$

ILZ079-100>102-120100-
SOUTHWEST ILLINOIS

CITY           SKY/WX    TMP DP  RH WIND       PRES   REMARKS
ALTON          CLOUDY    48  32  53 W23G33    29.87R
BELLEVILLE     CLOUDY    51  28  41 NW21G26   29.86R
CAHOKIA*       CLOUDY    50  28  42 NW21G32   29.89R
$$

ILZ064>066-069>071-074>076-080>082-084>086-088>090-092>094-120100-
SOUTH-CENTRAL ILLINOIS

CITY           SKY/WX    TMP DP  RH WIND       PRES   REMARKS
CARBONDALE     MOCLDY    52  25  35 W9        29.88R
6HR MIN TEMP:  52; 6HR MAX TEMP:  60;

CAIRO*         PTCLDY    55  25  31 NW16G26   29.87R
EFFINGHAM*     CLOUDY    47  32  55 W20G28    29.81R
MARION         MOCLDY    54  25  32 NW12G21   29.88R
MT. VERNON     CLOUDY    51  29  42 VRB7      29.85R
CENTRALIA*     CLOUDY    51  32  49 NW24      29.84R
SALEM*         CLOUDY    51  29  43 W17G24    29.84R
METROPOLIS*    PTCLDY    57  33  39 NW9G17    29.86R
$$

ILZ067-068-072-073-078-083-087-091-120100-
SOUTHEAST ILLINOIS

CITY           SKY/WX    TMP DP  RH WIND       PRES   REMARKS
LAWRENCEVILLE  CLEAR     49  27  42 W15G24    29.79R
FLORA*         CLOUDY    51  30  44 NW18G30   29.83R
HARRISBURG*    CLEAR     52  28  39 NW20G25   29.85R
ROBINSON*      MOCLDY    46  27  47 W17G24    29.78R
CARMI*         CLEAR     50  29  44 W17G31    29.84R
$$

ABBREVIATIONS USED IN REMARKS
   TC - TEMPERATURE IN CELSIUS
  WCI - WIND CHILL INDEX
   HX - HEAT INDEX
  VSB - VISIBILITY
$$





USA.gov is the U.S. government's official web portal to all federal, state and local government web resources and services.